Weather History for KFYV - January, 2013

Change the Weather History Date:

Tuesday, January 8, 2013

  Actual Average Record
Temperature  
Mean Temperature 41 °F 35 °F  
Max Temperature 58 °F 46 °F 68 °F (2008)
Min Temperature 23 °F 25 °F -14 °F (1970)
Degree Days  
Heating Degree Days 24 30  
Month to date heating degree days 260 240  
Since 1 July heating degree days 1778 1923  
Moisture  
Dew Point 35 °F    
Average Humidity 70    
Maximum Humidity 93    
Minimum Humidity 47    
Precipitation  
Precipitation 0.04 in 0.09 in - ()
Month to date precipitation 0.05 0.75  
Year to date precipitation 0.05 0.75  
Sea Level Pressure  
Sea Level Pressure 30.13 in    
Wind  
Wind Speed 4 mph (South)    
Max Wind Speed 18 mph    
Max Gust Speed 23 mph    
Visibility 10 miles    
Events Rain    
T = Trace of Precipitation, MM = Missing Value Source: NWS Daily Summary

Daily Weather History Graph

Daily Weather History Graph

Search for Another Location

Airport or City:

Trip Planner

Search our weather history database for the weather conditions in past years. The results will help you decide how hot, cold, wet, or windy it might be!

Date:

Astronomy

Jan. 08, 2013 Rise Set
Actual Time 7:27 AM CST 5:19 PM CST
Civil Twilight 6:59 AM CST 5:47 PM CST
Nautical Twilight 6:27 AM CST 6:19 PM CST
Astronomical Twilight 5:56 AM CST 6:50 PM CST
Moon 4:02 AM CST (1/8) 2:22 PM CST (1/8)
Length of Visible Light 10h 48m
Length of Day
9h 51m
Waning Crescent, 13% of the Moon is Illuminated
Jan 8
Waning Crescent
Jan 11
New
Jan 18
First Quarter
Jan 26
Full
Feb 3
Last Quarter

Hourly Weather History & Observations

Time (CST) Temp. Windchill Dew Point Humidity Pressure Visibility Wind Dir Wind Speed Gust Speed Precip Events Conditions
12:53 AM 34.0 °F 31.0 °F 24.1 °F 67% 30.13 in 10.0 mi SE 3.5 mph - N/A   Clear
1:53 AM 34.0 °F 31.0 °F 24.1 °F 67% 30.14 in 10.0 mi NE 3.5 mph - N/A   Clear
2:53 AM 28.0 °F - 21.9 °F 78% 30.15 in 10.0 mi Calm Calm - N/A   Clear
3:53 AM 32.0 °F - 21.9 °F 66% 30.14 in 10.0 mi Calm Calm - N/A   Clear
4:53 AM 25.0 °F - 19.9 °F 81% 30.14 in 10.0 mi Calm Calm - N/A   Clear
5:53 AM 24.8 °F - 21.2 °F 86% 30.12 in 10.0 mi Calm Calm - N/A   Mostly Cloudy
6:53 AM 24.1 °F - 21.0 °F 88% 30.16 in 10.0 mi Calm Calm - N/A   Mostly Cloudy
7:53 AM 26.1 °F - 21.9 °F 84% 30.17 in 10.0 mi Calm Calm - N/A   Scattered Clouds
9:53 AM 41.0 °F - 30.0 °F 65% 30.17 in 10.0 mi Calm Calm - N/A   Overcast
10:53 AM 51.1 °F - 34.0 °F 52% 30.15 in 10.0 mi South 8.1 mph - N/A   Mostly Cloudy
11:53 AM 54.0 °F - 35.1 °F 49% 30.11 in 10.0 mi South 9.2 mph - N/A   Mostly Cloudy
12:53 PM 55.0 °F - 37.0 °F 51% 30.07 in 10.0 mi SSE 10.4 mph - N/A   Mostly Cloudy
1:53 PM 57.9 °F - 37.9 °F 47% 30.08 in 10.0 mi SSW 13.8 mph - N/A   Scattered Clouds
2:53 PM 55.0 °F - 39.0 °F 55% 30.09 in 10.0 mi South 12.7 mph - N/A   Mostly Cloudy
3:53 PM 53.1 °F - 37.9 °F 57% 30.11 in 10.0 mi South 9.2 mph - N/A   Overcast
4:53 PM 48.9 °F - 42.1 °F 77% 30.10 in 9.0 mi Calm Calm - 0.02 in Rain Light Rain
5:46 PM 46.4 °F 43.5 °F 44.6 °F 93% 30.10 in 10.0 mi NW 5.8 mph - 0.00 in   Overcast
5:53 PM 46.9 °F - 44.1 °F 90% 30.12 in 10.0 mi NNW 4.6 mph - 0.00 in   Overcast
6:53 PM 46.9 °F - 45.0 °F 93% 30.14 in 10.0 mi Calm Calm - N/A   Overcast
7:53 PM 46.9 °F - 45.0 °F 93% 30.16 in 10.0 mi Calm Calm - N/A   Overcast
8:53 PM 46.9 °F - 44.1 °F 90% 30.15 in 10.0 mi SSE 5.8 mph - N/A   Overcast
9:14 PM 48.2 °F - 44.6 °F 87% 30.12 in 9.0 mi SE 4.6 mph - 0.01 in Rain Light Rain
9:36 PM 48.2 °F - 44.6 °F 87% 30.12 in 10.0 mi Calm Calm - 0.01 in   Overcast
9:53 PM 46.9 °F - 45.0 °F 93% 30.15 in 10.0 mi NW 8.1 mph - 0.01 in   Overcast
10:53 PM 46.4 °F 45.2 °F 44.6 °F 93% 30.19 in 7.0 mi NW 3.5 mph - N/A   Overcast
11:53 PM 46.9 °F - 45.0 °F 93% 30.21 in 5.0 mi Calm Calm - 0.01 in   Overcast